[[{"header":{"parameterUnit":"m.s-1","parameterCategory":1,"la1":30.2991,"la2":30.254,"lo1":-89.0895,"lo2":-89.0444,"dy":0.0017,"dx":0.0017,"nx":28,"ny":28,"refTime":"2024-05-13T21:00:00:Z","depth":0,"parameterNumber":2,"parameterNumberName":"U-component_of_WINDS"},"data":[0,0,0,0,0,0,0,0,0,0,0,0,0,0,0,0,0,0,0,0,0,0,0,0,0,0,0,0,0,0,0,0,0,0,0,0,0,0,0,0,0,0,0,0,0,0,0,0,0,0,0,0,0,0,0,0,0,0,2.6314,2.6316,0,2.6458,2.6459,2.6461,2.6493,2.6492,2.6491,2.649,2.6635,2.6639,2.6644,0,0,0,0,0,0,0,0,0,0,0,0,0,2.6067,2.6071,2.6314,2.6316,2.6318,2.6458,2.646,2.6462,2.6493,2.6492,2.649,2.6489,2.6633,2.6639,2.6644,0,0,0,0,0,0,0,0,0,0,0,0,0,2.6188,2.6072,2.6314,2.635,2.6355,2.6457,2.646,2.6462,2.6493,2.6491,2.649,2.6488,2.6631,2.6638,2.6645,2.6721,0,0,2.6667,2.667,0,0,0,0,0,0,0,0,2.6182,2.6198,2.6343,2.6348,2.6354,2.6456,2.6425,2.6549,2.6493,2.6441,2.649,2.6488,2.6576,2.6588,2.6618,2.6727,2.6734,2.6668,2.6672,2.6675,2.6677,0,0,0,0,0,0,0,2.6173,2.6192,2.6371,2.6345,2.6352,2.6359,2.6375,2.6449,2.6515,2.6445,2.6448,2.6464,2.6579,2.6611,2.6622,2.6736,2.6668,2.6674,2.6679,2.6681,2.6916,2.6918,0,0,0,0,0,0,2.6158,2.6184,2.6366,2.6375,2.6262,2.6365,2.6382,2.6424,2.6515,2.6527,2.6466,2.6465,2.6599,2.6613,2.6627,2.6722,2.6675,2.6682,2.6686,2.6914,2.6916,2.6918,0,0,0,0,0,0,2.6153,2.6174,2.6361,2.6281,2.6305,2.6371,2.6418,2.6428,2.646,2.653,2.6542,2.6486,2.6599,2.6617,2.6698,2.6727,2.6685,2.6692,2.6912,2.6915,2.6917,2.6912,0,0,0,0,0,0,2.6146,2.6172,2.6202,2.6281,2.6309,2.6429,2.642,2.6432,2.6473,2.6474,2.6553,2.6564,2.6599,2.6687,2.6705,2.6737,2.6698,2.6909,2.6913,2.6916,2.691,2.6914,2.6918,0,0,0,0,0,2.6137,2.6194,2.6203,2.6225,2.6347,2.6431,2.6447,2.6486,2.6475,2.6505,2.655,2.6562,2.6721,2.6695,2.6715,2.675,2.6908,2.6912,2.6916,2.6908,2.6913,2.6918,0,0,0,0,0,0,2.6115,2.6205,2.6216,2.63,2.6358,2.6436,2.6475,2.649,2.6551,2.655,2.6595,2.6613,2.6691,2.6729,2.6697,2.6828,2.6814,2.6823,2.6801,2.6806,2.6811,2.68,2.6704,0,0,0,0,0,2.612,2.618,2.6256,2.6323,2.6351,2.6408,2.6446,2.6471,2.6532,2.6557,2.6607,2.6666,2.6729,2.677,2.6832,2.6916,2.6933,2.695,2.6954,2.6957,2.6963,2.7011,2.702,2.6932,2.6932,2.6932,0,0,2.613,2.6187,2.6222,2.632,2.6367,2.6429,2.6428,2.6493,2.6539,2.6566,2.6646,2.6686,2.6754,2.6837,2.6875,2.687,2.6992,2.6962,2.6964,2.6969,2.7017,2.7025,2.7032,2.6935,2.6935,2.6934,0,0,2.6182,2.6231,2.6292,2.6341,2.6413,2.6451,2.6466,2.6542,2.657,2.6651,2.6673,2.6728,2.6837,2.6885,2.6923,2.6995,2.7008,2.7014,2.7035,2.7081,2.7088,2.7095,2.712,2.7129,2.702,2.702,2.702,0,2.6185,2.628,2.6322,2.6387,2.6429,2.6458,2.6521,2.6565,2.6654,2.6682,2.6676,2.6813,2.6861,2.6956,2.6974,2.7004,2.7022,2.7005,2.7084,2.7091,2.7097,2.7122,2.7132,2.7021,2.7021,2.7021,2.7021,0,2.6281,2.6346,2.6388,2.6474,2.6521,2.6584,2.6636,2.6679,2.6701,2.6739,2.6822,2.6881,2.6956,2.6981,2.7002,2.7079,2.7074,2.7075,2.7061,2.7105,2.713,2.714,2.7021,2.7021,2.7021,2.7021,0,0,2.6321,2.6431,2.6446,2.6486,2.6569,2.662,2.6685,2.6759,2.6795,2.6856,2.6912,2.7004,2.7006,2.705,2.7077,2.7118,2.7171,2.7114,2.7117,2.7123,2.726,2.7258,2.7269,2.7181,2.7183,2.7184,2.7255,0,2.6382,2.65,2.6541,2.6638,2.6699,2.6728,2.6785,2.6842,2.688,2.6937,2.6979,2.7044,2.7042,2.7069,2.711,2.7156,2.7199,2.7151,2.7233,2.7235,2.7214,2.7282,2.728,2.7343,2.7264,2.7266,2.7267,0,2.6469,2.6532,2.6636,2.6712,2.674,2.679,2.6862,2.6917,2.6982,2.7007,2.7057,2.7082,2.7152,2.7135,2.7231,2.7198,2.7234,2.7262,2.7265,2.7274,2.7253,2.7292,2.7364,2.7373,2.7283,2.7281,2.728,0,2.6487,2.6598,2.6675,2.6709,2.68,2.6835,2.6874,2.6939,2.6981,2.7045,2.7073,2.7143,2.7181,2.7235,2.7278,2.7262,2.7371,2.7358,2.7394,2.7393,2.7414,2.7412,2.7493,2.7438,2.7438,2.7438,2.7438,0,2.6551,2.6613,2.6685,2.6732,2.6803,2.6849,2.6918,2.696,2.7017,2.7072,2.7102,2.7153,2.7208,2.7267,2.7301,2.7376,2.7393,2.7415,2.7424,2.7412,2.741,2.7436,2.7433,2.7441,2.744,2.7439,2.7439,0,2.6583,2.6634,2.672,2.68,2.6821,2.687,2.6939,2.6986,2.7026,2.7096,2.7115,2.7178,2.7249,2.7298,2.7388,2.7412,2.7493,2.7501,2.7471,2.7475,2.7508,2.7504,2.7608,2.7624,2.7559,2.7559,2.756,0,2.6621,2.6669,2.6755,2.6795,2.6835,2.6899,2.6943,2.6991,2.7036,2.7116,2.7153,2.7226,2.7287,2.7399,2.7452,2.7522,2.7532,2.7564,2.7542,2.753,2.7532,2.7529,2.7534,2.7566,2.7567,2.7567,2.7568,0,2.6681,2.6704,2.6767,2.6839,2.6891,2.695,2.7009,2.704,2.7099,2.7147,2.7221,2.7268,2.7362,2.7434,2.7509,2.755,2.7569,2.7574,2.7586,2.7575,2.7556,2.7567,2.7479,2.7571,2.7571,2.7571,2.757,2.757,2.6717,2.6762,2.683,2.69,2.695,2.7005,2.7053,2.71,2.7162,2.7242,2.7267,2.7343,2.7409,2.7513,2.7555,2.7615,2.7613,2.763,2.7634,2.7638,2.7638,2.7547,2.7629,2.7629,2.7629,2.7629,2.7629,0,2.6779,2.6825,2.6888,2.6971,2.7026,2.704,2.7106,2.7151,2.7218,2.7278,2.7338,2.7423,2.7494,2.7554,2.7627,2.7664,2.7674,2.7681,2.7679,2.7688,2.7635,2.7618,2.7672,2.7672,2.7672,2.7672,2.7672,2.7672,2.6818,2.6895,2.6927,2.7029,2.7075,2.715,2.7187,2.7238,2.7287,2.738,2.744,2.7479,2.7539,2.7617,2.7683,2.7699,2.7724,2.7729,2.7747,2.7697,2.7692,2.7687,2.767,2.7735,2.7735,2.7795,2.7795,2.7796]},{"header":{"parameterUnit":"m.s-1","parameterCategory":1,"la1":30.2991,"la2":30.254,"lo1":-89.0895,"lo2":-89.0444,"dy":0.0017,"dx":0.0017,"nx":28,"ny":28,"refTime":"2024-05-13T21:00:00:Z","depth":0,"parameterNumber":3,"parameterNumberName":"V-component_of_WINDS"},"data":[0,0,0,0,0,0,0,0,0,0,0,0,0,0,0,0,0,0,0,0,0,0,0,0,0,0,0,0,0,0,0,0,0,0,0,0,0,0,0,0,0,0,0,0,0,0,0,0,0,0,0,0,0,0,0,0,0,0,-1.0736,-1.0736,0,-1.0699,-1.0699,-1.0698,-1.0667,-1.0667,-1.0667,-1.0666,-1.0626,-1.0625,-1.0624,0,0,0,0,0,0,0,0,0,0,0,0,0,-1.0778,-1.0778,-1.0736,-1.0736,-1.0736,-1.0699,-1.0699,-1.0698,-1.0667,-1.0667,-1.0667,-1.0666,-1.0626,-1.0625,-1.0624,0,0,0,0,0,0,0,0,0,0,0,0,0,-1.0752,-1.0777,-1.0737,-1.0716,-1.0714,-1.0699,-1.0699,-1.0698,-1.0668,-1.0667,-1.0667,-1.0666,-1.0626,-1.0625,-1.0624,-1.0626,0,0,-1.062,-1.062,0,0,0,0,0,0,0,0,-1.0754,-1.0751,-1.0719,-1.0717,-1.0715,-1.0688,-1.0699,-1.0674,-1.0668,-1.0685,-1.0666,-1.0666,-1.0646,-1.0644,-1.0638,-1.0625,-1.0623,-1.062,-1.062,-1.0619,-1.0619,0,0,0,0,0,0,0,-1.0756,-1.0752,-1.0722,-1.0719,-1.0716,-1.0708,-1.0703,-1.0694,-1.0669,-1.0683,-1.0681,-1.0677,-1.0645,-1.0639,-1.0636,-1.0622,-1.062,-1.0619,-1.0619,-1.0618,-1.0608,-1.0608,0,0,0,0,0,0,-1.0761,-1.0754,-1.0723,-1.0721,-1.0734,-1.0707,-1.0703,-1.0697,-1.0669,-1.0664,-1.0678,-1.0676,-1.0641,-1.0638,-1.0635,-1.0635,-1.0619,-1.0618,-1.0617,-1.0608,-1.0608,-1.0609,0,0,0,0,0,0,-1.0762,-1.0759,-1.0724,-1.0737,-1.0732,-1.0707,-1.0701,-1.0696,-1.069,-1.0665,-1.066,-1.0676,-1.0641,-1.0637,-1.0629,-1.0633,-1.0617,-1.0616,-1.0607,-1.0608,-1.0608,-1.0636,0,0,0,0,0,0,-1.0763,-1.0759,-1.0761,-1.0737,-1.0731,-1.072,-1.0701,-1.0696,-1.0688,-1.0686,-1.0662,-1.0657,-1.064,-1.0631,-1.0628,-1.0631,-1.0615,-1.0607,-1.0607,-1.0608,-1.0634,-1.0637,-1.064,0,0,0,0,0,-1.0765,-1.0769,-1.0761,-1.0757,-1.0732,-1.072,-1.0717,-1.0697,-1.0689,-1.0689,-1.0673,-1.0658,-1.0634,-1.063,-1.0626,-1.063,-1.0606,-1.0607,-1.0608,-1.0633,-1.0637,-1.064,0,0,0,0,0,0,-1.0793,-1.0766,-1.0756,-1.0753,-1.0739,-1.0715,-1.0715,-1.0702,-1.0689,-1.0687,-1.0663,-1.0658,-1.0653,-1.064,-1.0637,-1.063,-1.0618,-1.0618,-1.0638,-1.0641,-1.0644,-1.0647,-1.0614,0,0,0,0,0,-1.0799,-1.0792,-1.0769,-1.0768,-1.0762,-1.074,-1.0734,-1.072,-1.0704,-1.0698,-1.0681,-1.0666,-1.0654,-1.0647,-1.0636,-1.0633,-1.0627,-1.0633,-1.0636,-1.0639,-1.0639,-1.0635,-1.0638,-1.0612,-1.0612,-1.0612,0,0,-1.0811,-1.0795,-1.0792,-1.0773,-1.0761,-1.0753,-1.0735,-1.0728,-1.0722,-1.0697,-1.0688,-1.0675,-1.0656,-1.0651,-1.0648,-1.0641,-1.0645,-1.064,-1.0642,-1.0641,-1.0636,-1.0639,-1.0641,-1.0613,-1.0612,-1.0612,0,0,-1.0829,-1.0817,-1.0815,-1.0803,-1.0785,-1.077,-1.077,-1.0748,-1.0738,-1.073,-1.0711,-1.0702,-1.0684,-1.0671,-1.0662,-1.0675,-1.066,-1.0672,-1.0686,-1.0682,-1.0684,-1.0686,-1.069,-1.0691,-1.0672,-1.0672,-1.0672,0,-1.0846,-1.0834,-1.0815,-1.0809,-1.0801,-1.0779,-1.0776,-1.0765,-1.0744,-1.0738,-1.0731,-1.0707,-1.0693,-1.0683,-1.0687,-1.0681,-1.0678,-1.0674,-1.0686,-1.0687,-1.0689,-1.0692,-1.0693,-1.0674,-1.0674,-1.0673,-1.0673,0,-1.0856,-1.0848,-1.0848,-1.0829,-1.0821,-1.0817,-1.0796,-1.079,-1.0777,-1.0763,-1.0754,-1.0736,-1.072,-1.0717,-1.0704,-1.0705,-1.0702,-1.0691,-1.0677,-1.0693,-1.0695,-1.0696,-1.0676,-1.0675,-1.0675,-1.0674,0,0,-1.0889,-1.086,-1.086,-1.0851,-1.0829,-1.0822,-1.0817,-1.0802,-1.0796,-1.0783,-1.0776,-1.0761,-1.0751,-1.0741,-1.0726,-1.0724,-1.0734,-1.0713,-1.0712,-1.0716,-1.0733,-1.074,-1.0742,-1.0724,-1.0724,-1.0725,-1.0734,0,-1.0902,-1.0892,-1.0874,-1.0869,-1.0861,-1.084,-1.0835,-1.0821,-1.0807,-1.0798,-1.0783,-1.0772,-1.076,-1.0753,-1.075,-1.0733,-1.0736,-1.0732,-1.0717,-1.0716,-1.0721,-1.0743,-1.0751,-1.0761,-1.0735,-1.0735,-1.0735,0,-1.0916,-1.0904,-1.0898,-1.0877,-1.0873,-1.0869,-1.0853,-1.0845,-1.0828,-1.0818,-1.0807,-1.0792,-1.0784,-1.0773,-1.076,-1.0758,-1.075,-1.0741,-1.0741,-1.0738,-1.0726,-1.0739,-1.0764,-1.0765,-1.0736,-1.0736,-1.0736,0,-1.094,-1.0922,-1.0916,-1.0909,-1.0884,-1.0882,-1.0871,-1.0854,-1.0846,-1.0832,-1.0826,-1.0812,-1.0804,-1.0792,-1.0773,-1.0767,-1.0762,-1.0749,-1.0752,-1.0753,-1.0751,-1.0751,-1.0773,-1.0749,-1.0749,-1.0749,-1.0749,0,-1.0956,-1.0952,-1.0926,-1.0922,-1.0918,-1.0898,-1.0893,-1.0881,-1.0866,-1.0858,-1.0839,-1.0832,-1.0808,-1.0798,-1.0782,-1.0774,-1.077,-1.0761,-1.0757,-1.0762,-1.0763,-1.0756,-1.0755,-1.0749,-1.0749,-1.0749,-1.0749,0,-1.0981,-1.0963,-1.0955,-1.0933,-1.0927,-1.0924,-1.0905,-1.09,-1.0886,-1.0876,-1.0873,-1.085,-1.0837,-1.0817,-1.0798,-1.0788,-1.0781,-1.0775,-1.0787,-1.0784,-1.0788,-1.0787,-1.0805,-1.0806,-1.0782,-1.0782,-1.0783,0,-1.0991,-1.0988,-1.0966,-1.096,-1.095,-1.0941,-1.0933,-1.0913,-1.0905,-1.0886,-1.0883,-1.0869,-1.0856,-1.0836,-1.0818,-1.0803,-1.0795,-1.0802,-1.0793,-1.0798,-1.0794,-1.0794,-1.0793,-1.0804,-1.0805,-1.0805,-1.0805,0,-1.1012,-1.1003,-1.0993,-1.098,-1.0971,-1.0959,-1.0946,-1.0942,-1.0919,-1.0911,-1.0898,-1.0889,-1.087,-1.0855,-1.0838,-1.0826,-1.0811,-1.0809,-1.0808,-1.0813,-1.082,-1.0815,-1.0792,-1.0808,-1.0808,-1.0807,-1.0807,-1.0807,-1.1029,-1.1025,-1.1009,-1.0998,-1.0986,-1.0975,-1.0969,-1.0954,-1.0943,-1.0927,-1.0916,-1.0903,-1.0886,-1.0861,-1.0849,-1.0839,-1.0832,-1.0832,-1.0832,-1.0832,-1.0833,-1.0823,-1.0835,-1.0835,-1.0835,-1.0835,-1.0835,0,-1.1047,-1.1036,-1.1026,-1.1009,-1.1,-1.0989,-1.0974,-1.0967,-1.0957,-1.0942,-1.093,-1.0915,-1.0901,-1.0882,-1.0866,-1.0861,-1.0854,-1.0857,-1.0857,-1.0854,-1.084,-1.0842,-1.0863,-1.0863,-1.0863,-1.0863,-1.0863,-1.0863,-1.1056,-1.1049,-1.1038,-1.1025,-1.1013,-1.1002,-1.0994,-1.0983,-1.0971,-1.0955,-1.0944,-1.0932,-1.0915,-1.0898,-1.0884,-1.0878,-1.0873,-1.0878,-1.0871,-1.0858,-1.0855,-1.0853,-1.0854,-1.0878,-1.0878,-1.0885,-1.0885,-1.0885]}]]